User: anonymous   Login
Location: Aytr�
(46.1357°N, 1.1145°W)
Time: 00:44:25
(UTC+00:00)
Language:

Meteor 2-4 Rocket - Orbit

View from above orbital plane
View from above orbital plane
View from above satellite
View from above satellite

Ground track
Ground track

The orbit data is extracted from the following two-line orbital elements,

1 11289U 79021B   21138.60342579 -.00000010  00000-0 -12694-4 0  9990
2 11289  81.2482 207.5930 0076409 131.3176 229.4606 14.11620063172522
Epoch (UTC): 18 May 2021 14:28:55
Eccentricity: 0.0076409
inclination: 81.2482°
perigee height: 798 km
apogee height: 909 km
right ascension of ascending node: 207.5930°
argument of perigee: 131.3176°
revolutions per day: 14.11620063
mean anomaly at epoch: 229.4606°
orbit number at epoch: 17252

The dashed part of the orbit path shows where the satellite is in the earth's shadow,  

DLR